Location: Johnson City
(36.3130°N, 82.3540°W)
Time: 07:12:02
(UTC-05:00)

N. Korean satellite - Pass Details

Date: 02 December 2021
Orbit: 447 x 490 km, 97.3° (Epoch: 26 January)

Event Time Altitude Azimuth Distance (km) Brightness Sun altitude
Rises 17:36:32 0° 193° (SSW) 2,540 10.8 -4.9°
Reaches altitude 10° 17:38:52 10° 206° (SSW) 1,657 10.1 -5.3°
Maximum altitude 17:41:51 25° 263° (W) 1,005 9.2 -5.8°
Drops below altitude 10° 17:44:49 10° 321° (NW) 1,646 9.5 -6.4°
Sets 17:47:07 0° 335° (NNW) 2,519 10.2 -6.8°
